User: anonymous   Login
Location: Frizzleburg
(41.0764°N, 80.4548°W)
Time: 15:28:52
(UTC+00:00)
Language:

STARLINK-80 - Orbit

View from above orbital plane
View from above orbital plane
View from above satellite
View from above satellite

Ground track
Ground track

The orbit data is extracted from the following two-line orbital elements,

1 44282U 19029AZ  20017.54282443 +.00002804 +00000-0 +12780-3 0  9998
2 44282 053.0181 155.2738 0006409 116.0323 244.1334 15.24047850034853
Epoch (UTC): 17 January 2020 13:01:40
Eccentricity: 0.0006409
inclination: 53.0181°
perigee height: 489 km
apogee height: 498 km
right ascension of ascending node: 155.2738°
argument of perigee: 116.0323°
revolutions per day: 15.24047850
mean anomaly at epoch: 244.1334°
orbit number at epoch: 3485

The dashed part of the orbit path shows where the satellite is in the earth's shadow,  

DLR